Location: Ellingshausen
(50.5460°N, 10.4723°E)
Time: 23:12:43
(UTC+00:00)

SeaSat 1 - Pass Details

Date: 18 January 2026
Orbit: 737 x 739 km, 108.0° (Epoch: 7 February)

Event Time Altitude Azimuth Distance (km) Brightness Sun altitude
Rises 05:26:56 0° 35° (NE) 3,186 6.0 -15.9°
Reaches altitude 10° 05:29:20 10° 42° (NE) 2,258 5.3 -15.6°
Maximum altitude 05:33:58 41° 113° (ESE) 1,064 3.8 -14.9°
Drops below altitude 10° 05:38:35 10° 183° (S) 2,243 5.1 -14.2°
Sets 05:40:57 0° 191° (S) 3,162 5.8 -13.8°
